N61PG TFFF-TFFR

Flight info

Callsign N61PG
Flight time 0h 30m
Altitude 20000
Route LIDOS2R LIDOS DCT GONES DCT PPR
Aircraft C25B/M-SDE2E3FGHRWXY/LB1

Departure

Time 2026-05-06 16:36
Airport Martinique Aimé Césaire International Airport (TFFF)

Arrival

Time 2026-05-06 17:06
Airport Maryse Condé International Airport (TFFR)
Time Latitude Longitude Altitude Speed Heading
2026-05-06 16:27 14.59484 -60.99775 8 ft 0 kts 354°
2026-05-06 16:35 14.59478 -60.99796 8 ft 14 kts 199°
2026-05-06 16:35 14.59367 -60.99935 7 ft 34 kts 261°
2026-05-06 16:35 14.59297 -61.00166 7 ft 34 kts 262°
2026-05-06 16:35 14.59257 -61.00413 6 ft 35 kts 261°
2026-05-06 16:36 14.59218 -61.00648 6 ft 22 kts 257°
2026-05-06 16:36 14.59089 -61.00674 6 ft 22 kts 168°
2026-05-06 16:36 14.59085 -61.00446 4 ft 82 kts 81°
2026-05-06 16:36 14.59230 -60.99645 696 ft 132 kts 81°
2026-05-06 16:37 14.59435 -60.98599 1734 ft 168 kts 79°
2026-05-06 16:37 14.59714 -60.97286 2982 ft 201 kts 76°
2026-05-06 16:37 14.60094 -60.95772 4086 ft 239 kts 77°
2026-05-06 16:37 14.60543 -60.94053 4943 ft 254 kts 76°
2026-05-06 16:38 14.61029 -60.92273 5748 ft 261 kts 76°
2026-05-06 16:38 14.61516 -60.90451 6590 ft 266 kts 77°
2026-05-06 16:38 14.62015 -60.88592 7390 ft 271 kts 76°
2026-05-06 16:38 14.62526 -60.86707 8201 ft 274 kts 76°
2026-05-06 16:39 14.63050 -60.84804 9040 ft 276 kts 76°
2026-05-06 16:39 14.63576 -60.82917 10026 ft 271 kts 75°
2026-05-06 16:39 14.64327 -60.81167 10914 ft 267 kts 52°
2026-05-06 16:39 14.65895 -60.80189 11833 ft 267 kts 18°
2026-05-06 16:40 14.67724 -60.80002 12777 ft 266 kts 355°
2026-05-06 16:40 14.69428 -60.80697 13756 ft 264 kts 332°
2026-05-06 16:40 14.71087 -60.81749 13780 ft 297 kts 330°
2026-05-06 16:40 14.72287 -60.82501 13867 ft 311 kts 331°
2026-05-06 16:41 14.74212 -60.83644 14049 ft 326 kts 332°
2026-05-06 16:41 14.76233 -60.84816 14226 ft 339 kts 333°
2026-05-06 16:41 14.78308 -60.86044 14401 ft 349 kts 332°
2026-05-06 16:41 14.80433 -60.87312 14576 ft 356 kts 332°
2026-05-06 16:42 14.82601 -60.88592 14768 ft 362 kts 332°
2026-05-06 16:42 14.84803 -60.89895 14930 ft 366 kts 332°
2026-05-06 16:42 14.87039 -60.91195 14976 ft 373 kts 332°
2026-05-06 16:42 14.89314 -60.92548 14985 ft 380 kts 331°
2026-05-06 16:43 14.91602 -60.93955 14989 ft 385 kts 331°
2026-05-06 16:43 14.94010 -60.95142 14974 ft 385 kts 343°
2026-05-06 16:43 14.96598 -60.95872 14971 ft 386 kts 350°
2026-05-06 16:43 14.99252 -60.96338 14971 ft 389 kts 352°
2026-05-06 16:44 15.01919 -60.96855 14984 ft 391 kts 349°
2026-05-06 16:44 15.04589 -60.97402 14981 ft 392 kts 350°
2026-05-06 16:44 15.07275 -60.97922 14990 ft 393 kts 350°
2026-05-06 16:44 15.09969 -60.98440 14987 ft 394 kts 350°
2026-05-06 16:45 15.12671 -60.98965 14988 ft 395 kts 350°
2026-05-06 16:45 15.15371 -60.99494 14987 ft 395 kts 350°
2026-05-06 16:45 15.18076 -61.00023 14988 ft 396 kts 350°
2026-05-06 16:45 15.20785 -61.00548 14988 ft 396 kts 350°
2026-05-06 16:46 15.23493 -61.01080 14991 ft 396 kts 350°
2026-05-06 16:46 15.26202 -61.01604 14990 ft 396 kts 350°
2026-05-06 16:46 15.28910 -61.02137 14994 ft 396 kts 350°
2026-05-06 16:46 15.31621 -61.02661 14993 ft 396 kts 350°
2026-05-06 16:47 15.34331 -61.03194 14993 ft 396 kts 350°
2026-05-06 16:47 15.37041 -61.03720 14993 ft 396 kts 350°
2026-05-06 16:47 15.39750 -61.04242 14993 ft 396 kts 350°
2026-05-06 16:47 15.42458 -61.04751 14992 ft 395 kts 351°
2026-05-06 16:48 15.45165 -61.05280 14993 ft 395 kts 349°
2026-05-06 16:48 15.47859 -61.05852 15020 ft 395 kts 349°
2026-05-06 16:48 15.50546 -61.06442 15021 ft 394 kts 350°
2026-05-06 16:48 15.53195 -61.06884 15020 ft 376 kts 352°
2026-05-06 16:49 15.55677 -61.07444 15010 ft 357 kts 342°
2026-05-06 16:49 15.57928 -61.08415 15007 ft 345 kts 335°
2026-05-06 16:49 15.59897 -61.09766 15010 ft 337 kts 319°
2026-05-06 16:49 15.61304 -61.11700 14869 ft 338 kts 304°
2026-05-06 16:50 15.62477 -61.13827 14592 ft 341 kts 300°
2026-05-06 16:50 15.63568 -61.16019 14312 ft 343 kts 299°
2026-05-06 16:50 15.64641 -61.18245 13902 ft 348 kts 299°
2026-05-06 16:50 15.65717 -61.20513 13397 ft 353 kts 298°
2026-05-06 16:51 15.66805 -61.22805 12901 ft 356 kts 298°
2026-05-06 16:51 15.67905 -61.25115 12414 ft 358 kts 298°
2026-05-06 16:51 15.69024 -61.27431 11931 ft 360 kts 298°
2026-05-06 16:51 15.70170 -61.29741 11454 ft 361 kts 299°
2026-05-06 16:52 15.71331 -61.32015 10985 ft 362 kts 298°
2026-05-06 16:52 15.72487 -61.34350 10362 ft 367 kts 298°
2026-05-06 16:52 15.73700 -61.36702 9644 ft 372 kts 298°
2026-05-06 16:52 15.74912 -61.39091 8894 ft 376 kts 298°
2026-05-06 16:53 15.76176 -61.41483 8162 ft 379 kts 298°
2026-05-06 16:53 15.77405 -61.43862 7409 ft 345 kts 299°
2026-05-06 16:53 15.78625 -61.45737 5992 ft 290 kts 310°
2026-05-06 16:53 15.79893 -61.47338 5212 ft 286 kts 309°
2026-05-06 16:54 15.81077 -61.48926 4641 ft 275 kts 309°
2026-05-06 16:54 15.82279 -61.50472 3897 ft 274 kts 310°
2026-05-06 16:54 15.83453 -61.51999 3339 ft 267 kts 309°
2026-05-06 16:54 15.84539 -61.53541 2749 ft 263 kts 308°
2026-05-06 16:55 15.85551 -61.55058 2087 ft 243 kts 307°
2026-05-06 16:55 15.86411 -61.56540 1645 ft 239 kts 295°
2026-05-06 16:55 15.87033 -61.58161 1101 ft 231 kts 298°
2026-05-06 16:55 15.87727 -61.59496 910 ft 184 kts 299°
2026-05-06 16:56 15.87694 -61.60565 989 ft 147 kts 219°
2026-05-06 16:56 15.86954 -61.60498 472 ft 109 kts 126°
2026-05-06 16:56 15.86652 -61.59836 294 ft 110 kts 104°
2026-05-06 16:56 15.86451 -61.59070 242 ft 96 kts 107°
2026-05-06 16:57 15.86368 -61.58384 74 ft 97 kts 85°
2026-05-06 16:57 15.86492 -61.57888 14 ft 30 kts 73°
2026-05-06 16:57 15.86505 -61.57842 14 ft 1 kts 338°
2026-05-06 16:57 15.86469 -61.57976 14 ft 50 kts 254°
2026-05-06 16:58 15.86408 -61.58193 12 ft 11 kts 252°
2026-05-06 16:58 15.86394 -61.58240 16 ft 20 kts 252°
2026-05-06 16:58 15.86386 -61.58273 14 ft 0 kts 67°
2026-05-06 16:58 15.86456 -61.58019 13 ft 99 kts 75°
2026-05-06 16:59 15.86703 -61.57160 931 ft 140 kts 71°
2026-05-06 16:59 15.87347 -61.56346 2530 ft 165 kts 32°
2026-05-06 16:59 15.88600 -61.56439 3812 ft 220 kts 335°
2026-05-06 16:59 15.90151 -61.57409 4327 ft 278 kts 339°
2026-05-06 17:00 15.91985 -61.58314 5346 ft 318 kts 330°
2026-05-06 17:00 15.94027 -61.59625 5401 ft 367 kts 334°
2026-05-06 17:00 15.96217 -61.60570 5398 ft 321 kts 342°
2026-05-06 17:00 15.98246 -61.61388 5403 ft 306 kts 339°
2026-05-06 17:01 16.00158 -61.62172 5388 ft 292 kts 348°
2026-05-06 17:01 16.02168 -61.62428 5301 ft 285 kts 358°
2026-05-06 17:01 16.04119 -61.62637 5169 ft 286 kts 355°
2026-05-06 17:01 16.06092 -61.62840 5028 ft 285 kts 357°
2026-05-06 17:02 16.08065 -61.63014 4888 ft 285 kts 357°
2026-05-06 17:02 16.10040 -61.63197 4720 ft 286 kts 358°
2026-05-06 17:02 16.11974 -61.63389 4375 ft 270 kts 358°
2026-05-06 17:02 16.13780 -61.63489 4024 ft 253 kts
2026-05-06 17:03 16.15528 -61.63351 3680 ft 251 kts
2026-05-06 17:03 16.17262 -61.63193 3344 ft 249 kts
2026-05-06 17:03 16.18987 -61.63038 2990 ft 248 kts
2026-05-06 17:03 16.20704 -61.62884 2652 ft 248 kts 10°
2026-05-06 17:04 16.22410 -61.62678 2297 ft 245 kts 14°
2026-05-06 17:04 16.24040 -61.62190 1866 ft 242 kts 26°
2026-05-06 17:04 16.25365 -61.61162 1407 ft 238 kts 51°
2026-05-06 17:04 16.26162 -61.59676 1110 ft 232 kts 66°
2026-05-06 17:05 16.26768 -61.58200 915 ft 210 kts 70°
2026-05-06 17:05 16.27103 -61.56903 700 ft 164 kts 85°
2026-05-06 17:05 16.27063 -61.55915 428 ft 102 kts 108°
2026-05-06 17:05 16.26902 -61.55181 155 ft 107 kts 105°
2026-05-06 17:06 16.26763 -61.54433 40 ft 106 kts 101°
2026-05-06 17:06 16.26645 -61.53796 22 ft 60 kts 101°
2026-05-06 17:06 16.26576 -61.53443 26 ft 56 kts 100°
2026-05-06 17:06 16.26500 -61.53189 24 ft 20 kts 174°
2026-05-06 17:07 16.26425 -61.53199 24 ft 0 kts 221°
2026-05-06 17:07 16.26412 -61.53205 24 ft 2 kts 169°
2026-05-06 17:07 16.26401 -61.53197 24 ft 0 kts 133°